Regional Weather Roundup
Issued by NWS Wilmington, NC

Home | Current Version | Previous Version | Text Only | Print | Product List | Glossary On
Versions: 1 2 3 4 5 6 7 8 9 10 11 12 13 14 15 16 17 18 19 20 21 22 23 24 25 26 27 28 29 30 31 32 33 34 35 36 37 38 39 40 41 42 43 44 45 46 47 48 49 50
000
ASUS42 KILM 030813
RWRILM
RWRILM
REGIONAL HOURLY WEATHER ROUNDUP
NATIONAL WEATHER SERVICE WILMINGTON NC
400 AM EDT MON AUG 03 2015

NOTE: "FAIR" INDICATES FEW OR NO CLOUDS BELOW 12,000 FEET WITH NO
SIGNIFICANT WEATHER AND/OR OBSTRUCTIONS TO VISIBILITY.

...............WFO WILMINGTON COUNTY WARNING AREA...............

......COASTAL NC AND SC COUNTIES......

CITY           SKY/WX    TMP DP  RH WIND       PRES   REMARKS
WILMINGTON     LGT RAIN  74  71  91 SW8       29.92S
N MYRTLE BEACH CLOUDY    79  70  74 W14G25    29.91S
MYRTLE BEACH   CLOUDY    79  68  69 SW6       29.93S

......INLAND NC AND SC COUNTIES.......

CITY           SKY/WX    TMP DP  RH WIND       PRES   REMARKS
LUMBERTON      CLOUDY    76  72  87 CALM      29.90F
ELIZABETHTOWN  MOCLDY    75  74  96 CALM      29.91F
WHITEVILLE     CLOUDY    76  73  91 S3        29.91S
FLORENCE       PTCLDY    75  73  93 S6        29.90F
DARLINGTON     PTCLDY    73  70  88 CALM      29.92S

....................REST OF NORTH CAROLINA......................

.........EASTERN NC.........

CITY           SKY/WX    TMP DP  RH WIND       PRES   REMARKS
CAPE HATTERAS  MOCLDY    77  73  87 SW10      29.93R
JACKSONVILLE   PTCLDY    73  66  78 SW5       29.92F
MOREHEAD CITY  CLOUDY    77  76  96 SW14G24   29.92S
KENANSVILLE    MOCLDY    71  70  95 CALM      29.93S
NEW BERN       MOCLDY    74  71  91 CALM      29.93S
ELIZABETH CITY CLEAR     75  73  93 SW7       29.91S

.........CENTRAL NC.........

CITY           SKY/WX    TMP DP  RH WIND       PRES   REMARKS
RALEIGH DURHAM PTCLDY    70  66  87 CALM      29.91F
ROCKY MOUNT    CLEAR     71  69  93 CALM      29.91S
ROANOKE RAPIDS NOT AVBL
FAYETTEVILLE   CLEAR     75  72  90 S3        29.91S
HOFFMAN        MOCLDY    74  70  89 SE2       29.91F

.........WESTERN NC.........

CITY           SKY/WX    TMP DP  RH WIND       PRES   REMARKS
CHARLOTTE      PTCLDY    74  67  78 E3        29.93F
GREENSBORO     PTCLDY    71  60  68 CALM      29.93S
HICKORY        NOT AVBL
BOONE          NOT AVBL
ASHEVILLE      NOT AVBL

.....................REST OF SOUTH CAROLINA.....................

.........EASTERN SC.........

CITY           SKY/WX    TMP DP  RH WIND       PRES   REMARKS
CHARLESTON     MOCLDY    77  74  90 CALM      29.88F
BEAUFORT MCAS  PTCLDY    78  76  93 CALM      29.88S
HILTON HEAD    PTCLDY    79  75  89 S6        29.88S

.........CENTRAL SC.........

CITY           SKY/WX    TMP DP  RH WIND       PRES   REMARKS
COLUMBIA       MOCLDY    74  70  87 E6        29.89S
ORANGEBURG     PTCLDY    74  71  91 CALM      29.89F
SUMTER SHAW    MOCLDY    71  69  92 NE3       29.88F

.........WESTERN SC.........

CITY           SKY/WX    TMP DP  RH WIND       PRES   REMARKS
GREENVILLE     NOT AVBL
ROCK HILL      CLEAR     69  67  93 CALM      29.92F
ANDERSON       MOCLDY    73  68  84 CALM      29.91F
CLEMSON        NOT AVBL
GREENWOOD      MOCLDY    74  70  87 CALM      29.91F


...................COASTAL AND OFFSHORE REPORTS..................

................LOCAL PIERS AND NC RESERVE................


STATION/POSITION TIME  SKY/WX   TEMP    WIND        PRES    VSBY
                                AIR SEA DIR/SP/G
                 (UTC)          (F)     (DEG/KT/KT) (MB)    (MI)
JOHNY MRCER PIER 0700            76 85  200/ 18/ 19 1012.7F
NC RESRV MASNBRO NOT AVBL
OCEAN CREST PIER NOT AVBL
SPRINGMAID  PIER 0700            80 86  200/ 20/ 23 1012.8F


................COASTAL AND OFFSHORE BUOYS................


STATION/POSITION TIME  SKY/WX   TEMP    WIND        PRES    VSBY
                                AIR SEA DIR/SP/G
                 (UTC)          (F)     (DEG/KT/KT) (MB)    (MI)
DIMNDSHOAL 41025 0750            77 84  220/ 16/ 19 1013.5F
WVE H/P(F/S)=  4/ 5 WND WVE H/P(F/S)=  3/ 5 SWL H/P/D(F/S/D)=  2/130/11

CAPE LOOKOUT     0800            76     230/ 12/ 17 1013.1R
ONSLOW BAY 41036 NOT AVBL
5 WRITEBCH 41038 0708            75 83  220/ 14/ 25 1013.2F
MASONBORO  41110 0719               83                N/A
WVE H/P(F/S)=  5/ 7 WND WVE H/P(F/S)=  5/ 7

WILM HARBR 41108 0711               83                N/A
WVE H/P(F/S)=  7/ 7 WND WVE H/P(F/S)=  7/ 7

27WRITEBCH 41037 0700            77 82  240/ 17/ 23   N/A
FRYING PAN 41013 0750            83 83  220/ 14/ 16 1013.7R
WVE H/P(F/S)=  6/ 7 WND WVE H/P(F/S)=  5/ 6 SWL H/P/D(F/S/D)=  5/200/ 7

SUNST NRSH 41024 0708            82     220/ 21/ 29 1012.9
CAPRS NRSH 41029 0708            82     220/ 17/ 23 1012.5F
EDISTO     41004 0750            83 83  200/ 17/ 19 1011.6R
WVE H/P(F/S)=  6/ 6 WND WVE H/P(F/S)=  5/ 6 SWL H/P/D(F/S/D)=  2/ 8



..........OFFSHORE BUOYS BEYOND 100 NM OFFSHORE...........
.....IN A TRIANGLE---HAT TO BERMUDA TO BAHAMAS TO HAT.....


STATION/POSITION TIME  SKY/WX   TEMP    WIND        PRES    VSBY
                                AIR SEA DIR/SP/G
                 (UTC)          (F)     (DEG/KT/KT) (MB)    (MI)
150E HAT   41001 0700            81 82  210/ 16/ 19 1015.6F
W BERMUDA  41048 0750            82 82  200/ 12/ 14 1018.3R
WVE H/P(F/S)=  4/ 8 WND WVE H/P(F/S)=  3/ 5 SWL H/P/D(F/S/D)=  3/250/ 8

ATLANTIC S 41049 0750            84 85  120/ 12/ 16 1020.3S
WVE H/P(F/S)=  5/ 7 WND WVE H/P(F/S)=  3/ 4 SWL H/P/D(F/S/D)=  3/140/ 7

E BAHAMAS  41046 0750            80 84  110/ 14/ 19 1016.5F
WVE H/P(F/S)=  5/ 8 WND WVE H/P(F/S)=  5/ 6 SWL H/P/D(F/S/D)=  3/120/ 8

NE BAHAMAS 41047 0750            82 85  140/ 12/ 14 1017.0F
WVE H/P(F/S)=  3/ 7 WND WVE H/P(F/S)=  2/ 4 SWL H/P/D(F/S/D)=  3/110/ 7

120E CANVRL41010 0750            83 84  160/ 17/ 21 1013.7F
WVE H/P(F/S)=  4/ 4 WND WVE H/P(F/S)=  3/ 4 SWL H/P/D(F/S/D)=  2/130/ 8


END



USA.gov is the U.S. government's official web portal to all federal, state and local government web resources and services.